CAPE
19 5 5 99 18 81 87 94 212 127 93 289 19 12 34 4 13 1 0 0 10 354 993 1321 2173 2094 1919 2406 2095 2211 1653 1889 2183 1912 1919 1946 1994 1935 1909 2034 1875 1895 1785 1852 1636 1716 1757 1475 1059
4 14 201 198 470 56 69 152 140 181 183 121 102 152 74 5 7 0 0 0 91 768 1324 1693 2278 2142 1852 2218 2183 2189 1893 1956 2010 1875 1914 2151 1963 1874 2296 2023 1968 1817 1679 1630 1676 1650 1423 1538 1367
17 43 206 134 39 96 126 106 176 167 121 234 204 67 14 25 1 0 0 18 368 979 1483 1590 2500 2486 1949 1859 2178 2060 2042 2161 1691 1842 2067 1999 2177 1790 1799 1896 1759 1784 1723 1693 1553 1470 1407 1359 1269
26 387 294 91 19 145 178 362 183 157 278 313 209 0 0 0 0 0 3 20 653 953 1261 2120 2321 1803 1922 2083 1707 1916 1689 2104 1777 1979 2229 2162 1946 1796 1854 1789 1756 1735 1709 1656 1593 1511 1429 1469 1248
565 147 2 2 47 99 128 179 242 251 299 224 138 2 3 0 0 0 6 267 770 1169 1474 1683 2707 2449 2219 1867 1839 1645 1799 1801 1805 1957 2019 2166 2088 2025 1932 1968 1893 1854 1794 1749 1755 1696 1657 1477 1353
310 18 11 11 80 108 119 238 376 333 267 133 53 0 0 2 0 0 17 594 873 1297 1550 1701 2339 2530 2097 1698 1755 1782 1736 1605 1770 1783 1866 1955 2145 2085 1912 1820 1796 1740 1658 1556 1608 1636 1710 1613 1340
61 4 26 47 59 90 196 104 431 390 294 268 84 1 2 0 0 1 309 657 992 1348 1513 1632 1567 1565 1708 1894 1961 1684 1732 1723 1740 1778 1756 1754 1794 1861 1924 1872 1796 1724 1693 1648 1661 1701 1653 1594 1353
247 4 0 34 2 223 141 275 439 439 255 149 7 0 3 6 6 175 530 682 945 1234 1401 1574 1406 1301 1548 1586 1889 1709 1842 1794 1751 1733 1698 1608 1502 1499 1639 1898 2107 1675 1591 1545 1584 1704 1732 1603 1676
264 25 25 105 30 156 213 370 350 319 260 237 181 147 0 3 36 170 447 645 874 1200 1331 1367 1210 1363 1441 1493 1491 1657 1884 1865 1809 1641 1720 1608 1091 1165 1212 1519 1655 1518 1450 1467 1310 1543 1772 1648 1578
427 148 21 60 17 43 106 423 414 348 370 176 201 28 3 8 71 137 303 595 769 924 1096 1179 1074 1165 1204 1301 1372 1270 1403 1475 1342 898 718 736 791 997 1267 1399 1646 1511 1677 1681 1622 1202 1450 1459 648
458 300 104 35 51 51 28 496 518 474 452 235 159 22 5 11 29 182 326 577 677 801 885 820 829 969 973 918 1188 1089 1095 1001 926 726 15 395 782 1049 1210 1023 907 304 286 283 734 555 544 648 714
144 206 125 39 28 61 23 51 630 627 399 306 138 67 7 32 158 199 414 497 611 698 716 564 529 738 704 769 766 737 725 591 761 546 4 402 343 639 524 401 228 161 223 479 682 907 856 902 656
139 152 160 152 26 20 11 80 442 688 435 293 123 103 24 73 255 303 351 479 619 523 417 359 417 557 551 489 285 615 548 468 526 282 69 242 147 375 504 318 442 363 442 582 869 1008 933 396 53
92 95 74 183 45 38 54 44 456 630 458 248 123 160 220 194 298 378 335 444 466 331 204 222 432 417 429 289 38 451 485 414 497 476 498 393 520 701 729 763 633 512 682 649 833 983 700 425 152
38 12 10 61 29 47 75 36 880 669 538 347 212 253 297 193 230 284 307 351 429 192 64 77 355 390 267 315 35 194 318 382 497 619 704 526 218 621 867 733 797 672 607 577 954 831 516 234 261
5 2 0 36 63 126 13 12 778 621 450 400 250 221 255 228 135 257 313 329 309 120 8 32 151 338 163 514 406 597 412 283 682 923 991 757 617 965 963 868 750 633 793 955 1103 878 497 66 218
0 0 0 7 67 131 53 8 770 671 451 375 270 264 287 187 187 264 282 273 224 60 27 36 58 493 160 762 509 509 495 478 582 956 1021 951 1192 1248 747 601 664 782 852 1282 1101 740 617 276 205
0 0 0 0 14 82 42 56 620 661 518 455 357 282 303 196 143 198 240 170 190 106 115 6 26 522 320 546 280 306 318 292 554 802 712 1151 1348 1257 730 671 368 403 1059 1077 787 814 298 326 238
0 0 0 0 0 64 10 62 48 596 518 522 458 401 312 267 228 323 188 125 192 145 99 66 33 342 378 502 299 179 156 118 231 461 784 744 922 1343 1019 733 652 651 874 1035 751 0 3 0 36
0 0 0 0 0 22 53 92 80 561 546 450 466 501 438 411 343 334 250 105 124 125 185 109 26 71 448 356 378 189 64 33 88 319 899 860 1053 1379 1137 738 826 893 1096 674 873 234 338 0 27
0 0 0 0 27 43 54 40 62 148 488 479 446 460 455 454 424 395 387 154 165 141 220 204 72 8 225 444 415 552 331 150 162 309 487 1010 1129 1337 1293 1104 1168 1124 1161 808 852 526 292 0 38
0 0 0 11 25 32 11 1 14 75 179 393 407 361 323 314 323 381 406 281 248 270 247 192 227 166 91 527 307 443 455 587 317 249 261 1056 1173 1339 1544 1228 1182 1054 997 1199 1003 404 648 0 0
0 0 0 27 1 3 0 5 8 46 206 309 187 223 91 351 291 263 365 457 301 255 236 199 532 351 291 528 388 309 376 589 726 482 344 341 1218 1347 1279 1447 1436 916 1110 1008 893 980 483 0 0
0 0 0 50 36 6 0 0 0 25 210 319 265 247 163 278 354 259 171 212 295 241 101 251 650 544 477 566 493 394 304 328 450 523 569 306 759 1123 1389 1279 1283 1094 989 1329 1165 1145 1005 426 0
0 0 0 16 29 0 0 0 0 20 206 159 279 324 241 391 359 337 220 184 177 270 208 184 416 828 681 621 645 533 463 432 493 490 345 386 597 740 1000 1751 1630 1614 1250 1273 863 1062 1326 930 902
0 0 0 0 1 0 0 0 0 0 1 194 335 393 508 207 322 338 309 312 258 289 435 312 351 557 898 748 674 653 635 565 484 541 492 161 312 980 974 1497 1626 1719 1590 1412 1489 1538 1288 1152 961
0 0 0 0 0 0 0 0 0 0 0 71 340 542 629 423 240 425 349 357 334 407 571 581 429 397 856 906 840 837 699 631 663 685 407 307 190 1055 1203 1367 1872 1841 1708 1565 1664 1671 1740 1533 1051
0 0 0 0 0 0 0 0 0 0 0 0 255 580 705 468 509 565 398 400 402 538 510 726 670 526 622 1023 843 718 919 1312 807 666 649 853 462 679 1253 1203 1811 1939 1852 1723 1448 1631 1915 1981 1944
0 0 0 0 0 0 0 0 0 0 0 0 6 427 532 601 689 575 476 492 580 658 620 775 846 757 787 823 1158 1004 732 605 1603 1465 742 472 870 1187 1014 1270 1417 1767 1846 1827 1595 1359 1850 2202 1907
0 0 0 0 0 0 0 0 0 0 0 1 2 203 386 481 608 568 632 613 714 766 716 694 971 933 903 1030 1107 1331 1231 934 640 1451 1943 1282 621 745 1188 1212 1594 1681 1832 1858 1756 1440 1620 2136 2281
CIN
-77 -66 -50 -11 -16 -7 -34 -31 -47 -64 -101 -78 -9 -26 -119 -151 -145 -11 0 0 -170 -3 -2 -1 0 0 0 0 0 0 0 0 0 0 0 0 0 0 0 0 0 0 0 0 0 0 0 0 -2
-135 -50 -6 -4 0 -10 -29 -37 -42 -79 -78 -76 -50 -57 -121 -88 -90 0 0 0 -45 -1 -1 0 0 0 0 0 0 0 0 0 0 0 0 0 0 0 0 0 0 0 0 0 0 0 -10 -1 -2
-31 -12 -5 -1 -4 -17 -28 -24 -32 -45 -46 -42 -58 -85 -73 -126 0 0 0 -110 -5 -1 -1 -1 0 0 0 0 0 0 0 0 0 0 -1 0 0 0 0 0 0 0 0 0 0 -3 -8 -9 -10
-29 -3 -2 -36 -49 -32 -19 -13 -37 -24 -13 -24 -40 -1 0 0 0 0 -109 -105 0 -2 -1 0 0 0 0 0 0 0 0 0 0 0 0 0 0 0 0 0 0 0 0 0 0 -1 -7 -6 -14
-10 -35 -1 -3 -2 -8 -1 -2 -20 -40 -32 -41 -21 -7 0 0 0 0 -165 -20 -2 0 -2 -1 0 0 0 0 0 0 0 0 0 0 0 0 0 0 0 0 0 0 0 0 0 -3 -7 -13 -12
-24 -89 -30 -3 -7 -4 -19 -24 -48 -41 -77 -51 -49 0 0 -5 0 0 -118 -8 -12 -1 -1 0 0 0 0 0 0 0 0 0 0 0 0 0 0 0 0 -2 -3 -3 -6 -13 -13 -12 -11 -12 -21
-6 -1 -12 -2 -8 -12 -54 -40 -36 -58 -55 -42 -52 0 0 0 0 -76 -16 -22 -15 -2 0 0 0 -1 0 0 0 -1 -1 0 0 0 0 0 -2 -6 -8 -6 -8 -12 -6 -11 -18 -18 -18 -20 -29
-49 -8 0 -81 -8 -1 -12 -42 -88 -59 -140 -207 -99 0 0 -68 -178 -32 -6 -20 -19 -7 -6 -1 -2 -2 -2 -1 0 -6 0 0 0 -1 -7 -10 -15 -13 -13 -12 -6 -19 -17 -15 -22 -16 -23 -24 -23
-8 -122 -28 -41 -20 -2 -8 -28 -68 -107 -163 -143 -177 -96 -31 -176 -228 -64 -2 -17 -13 -6 -6 -2 -20 -3 -2 -2 -11 -13 -1 0 -1 -5 -9 -25 -40 -28 -21 -30 -21 -25 -20 -19 -27 -28 -22 -24 -27
-3 -54 -69 -76 -50 -17 -23 -35 -48 -103 -106 -181 -104 -308 -103 -216 -195 -101 -42 -24 -16 -9 -11 -21 -38 -20 -20 -27 -33 -44 -26 -26 -34 -65 -62 -38 -38 -35 -44 -35 -19 -33 -39 -48 -26 -45 -34 -35 -60
-37 -67 -104 -5 -5 -75 -29 -39 -61 -139 -83 -165 -132 -340 -51 -78 -123 -85 -55 -28 -36 -35 -35 -51 -60 -46 -56 -72 -62 -62 -62 -75 -80 -65 -78 -58 -74 -62 -44 -44 -34 -56 -81 -34 -99 -95 -15 -46 -24
-111 -68 -65 -23 -9 -59 -22 -74 -84 -127 -233 -205 -132 -340 -69 -241 -156 -124 -54 -44 -23 -42 -59 -77 -86 -73 -76 -102 -120 -117 -105 -119 -78 -57 -6 -40 -49 -46 -53 -136 -33 -73 -8 -16 -17 -59 -61 -54 -81
-81 -82 -56 -36 -33 -103 -13 -94 -44 -115 -211 -267 -231 -238 -215 -320 -142 -85 -61 -44 -28 -50 -68 -94 -96 -88 -82 -111 -153 -121 -120 -125 -98 -120 -80 -23 -42 -44 -21 -115 -110 -35 -41 -23 -32 -46 -50 -58 -42
-79 -103 -32 -26 -43 -96 -54 -58 -53 -167 -257 -313 -282 -221 -193 -204 -167 -99 -65 -44 -36 -46 -83 -90 -85 -99 -82 -87 -48 -98 -91 -93 -98 -16 -40 -120 -62 -32 -46 -24 -40 -33 -27 -32 -26 -29 -49 -28 -100
-44 -83 -50 -49 -14 -65 -115 -54 -88 -214 -250 -271 -268 -222 -156 -182 -145 -154 -118 -90 -53 -63 -92 -96 -76 -83 -95 -61 -58 -81 -61 -65 -89 -116 -134 -138 -37 -59 -73 -41 -57 -70 -70 -58 -32 -44 -30 -18 -38
-5 -3 -11 -62 -10 -42 -1 -91 -79 -93 -272 -237 -240 -237 -195 -185 -183 -112 -98 -72 -68 -83 -22 -128 -83 -100 -89 -109 -88 -55 -31 -73 -78 -88 -83 -34 -27 -43 -51 -32 -50 -54 -48 -42 -33 -45 -27 -14 -56
-1 0 0 -40 -88 -46 -16 -34 -89 -117 -195 -259 -258 -221 -202 -186 -152 -123 -99 -79 -88 -127 -56 -142 -103 -100 -79 -66 -29 -60 -59 -69 -43 -42 -60 -74 -44 -30 -34 -40 -50 -36 -32 -49 -38 -27 -29 -39 -45
0 0 0 -1 -64 -32 -74 -46 -88 -132 -161 -260 -262 -231 -191 -200 -164 -118 -109 -112 -71 -94 -80 -39 -130 -91 -64 -72 -64 -62 -68 -73 -62 -64 -60 -45 -52 -31 -34 -25 -42 -14 -33 -30 -61 -28 -64 -45 -27
0 0 0 0 0 -58 -42 -69 -130 -162 -115 -210 -265 -245 -248 -258 -108 -21 -100 -110 -66 -75 -86 -75 -143 -92 -48 -96 -110 -125 -111 -78 -98 -59 -48 -101 -79 -62 -54 -45 -31 -24 -44 -24 -23 0 -44 0 -77
0 0 0 0 0 0 -20 -22 -91 -118 -144 -284 -237 -229 -241 -217 -128 -51 -20 -102 -104 -117 -85 -80 -153 -144 -119 -135 -139 -148 -158 -96 -124 -57 -87 -93 -79 -69 -53 -46 -28 -29 -31 -25 -30 -38 -28 0 -42
0 0 0 0 -8 -1 -1 -1 -102 -67 -158 -210 -185 -241 -245 -240 -180 -95 -29 -108 -88 -126 -101 -82 -184 -121 -163 -168 -153 -117 -127 -149 -136 -89 -103 -88 -62 -64 -60 -31 -48 -33 -32 -24 -37 -32 -20 0 -57
0 0 0 -24 -6 -1 -1 -1 -2 -105 -145 -148 -194 -204 -176 -180 -211 -192 -93 -83 -101 -112 -102 -92 -207 -197 -210 -182 -182 -154 -163 -134 -160 -137 -97 -59 -54 -46 -44 -32 -42 -30 -18 -17 -26 -29 -26 0 0
0 0 0 -20 -2 -2 0 -6 -23 -149 -161 -146 -81 -153 -43 -181 -181 -226 -214 -116 -128 -89 -95 -114 -221 -213 -234 -220 -201 -183 -173 -146 -99 -103 -108 -136 -49 -27 -30 -37 -20 -44 -36 -30 -20 -51 -37 0 0
0 0 0 -16 -10 -4 -5 0 0 -109 -166 -108 -120 -62 -53 -297 -230 -182 -162 -121 -113 -97 -142 -250 -195 -228 -241 -227 -205 -213 -232 -222 -152 -103 -86 -112 -79 -32 -75 -55 -28 -40 -51 -34 -22 -36 -20 -20 0
0 0 0 -3 -10 0 0 0 0 -125 -178 -160 -120 -90 -189 -295 -278 -209 -121 -157 -122 -250 -279 -289 -286 -204 -230 -211 -217 -219 -211 -198 -194 -160 -156 -116 -178 -111 -74 -52 -23 -11 -33 -38 -27 -51 -20 -37 -61
0 0 0 0 -2 0 0 0 0 0 -8 -195 -106 -101 -349 -151 -248 -244 -181 -104 -89 -309 -290 -307 -323 -281 -233 -233 -232 -206 -200 -201 -197 -160 -146 -185 -240 -110 -93 -91 -50 -18 -42 -42 -48 -25 -24 -22 -61
0 0 0 0 0 0 0 0 0 0 0 -194 -236 -215 -236 -173 -95 -239 -206 -120 -86 -54 -348 -330 -354 -323 -270 -255 -231 -227 -223 -208 -215 -176 -186 -176 -219 -126 -71 -91 -67 -24 -16 -43 -38 -29 -31 -18 -48
0 0 0 0 0 0 0 0 0 0 0 0 -138 -204 -228 -122 -245 -180 -211 -227 -33 -47 -194 -345 -353 -369 -354 -260 -271 -270 -229 -179 -211 -192 -176 -213 -178 -171 -84 -75 -80 -52 -29 -19 -56 -59 -40 -31 -21
0 0 0 0 0 0 0 0 0 0 0 0 -10 -207 -191 -108 -163 -163 -279 -57 -52 -61 -56 -377 -356 -351 -341 -321 -279 -269 -295 -288 -133 -113 -175 -210 -169 -83 -124 -79 -92 -93 -62 -38 -27 -77 -69 -22 -40
0 0 0 0 0 0 0 0 0 0 0 -1 -1 -177 -177 -175 -152 -154 -263 -68 -81 -71 -64 -85 -374 -381 -391 -364 -322 -264 -244 -274 -319 -170 -98 -135 -193 -223 -100 -82 -61 -90 -76 -59 -40 -86 -80 -40 -19
Wind_Speed
nan nan nan nan nan nan nan nan 1 10 nan 5 nan nan nan nan nan nan nan nan nan 6 4 8 11 9 9 7 5 5 5 6 5 6 6 7 6 4 3 2 1 2 4 7 7 5 4 5 7
nan nan 2 5 9 nan nan 1 7 11 8 7 4 3 nan nan nan nan nan nan nan 6 3 6 10 8 8 6 4 3 5 4 5 5 6 6 6 6 4 4 4 4 5 6 5 4 4 6 6
nan nan 5 9 nan nan 12 8 12 12 12 5 4 nan nan nan nan nan nan nan 9 7 4 9 9 8 8 6 3 2 4 4 4 6 6 6 6 6 6 5 4 3 3 4 3 3 3 4 5
nan 8 2 nan nan 25 17 19 8 12 10 1 9 nan nan nan nan nan nan nan 9 10 5 12 10 9 7 6 3 3 4 3 4 4 6 4 5 3 2 1 0 1 4 6 8 7 7 6 5
12 12 nan nan nan nan 18 24 11 9 2 4 5 nan nan nan nan nan nan 5 10 8 7 7 10 8 6 5 3 3 2 2 1 2 4 5 4 4 2 3 5 5 5 6 6 7 9 9 3
9 nan nan nan nan 21 14 22 13 8 7 10 nan nan nan nan nan nan nan 9 10 8 6 4 9 8 8 6 4 3 2 1 4 5 5 6 6 6 7 6 7 6 6 8 9 10 13 13 9
nan nan nan nan nan nan 6 20 15 14 11 7 nan nan nan nan nan nan 7 10 11 10 5 3 2 6 8 6 5 3 2 6 9 9 9 9 10 8 7 9 8 8 9 11 13 13 16 19 18
11 nan nan nan nan 12 19 12 12 16 5 13 nan nan nan nan nan 10 6 13 12 7 4 2 2 3 4 5 4 2 7 10 12 11 11 11 10 9 8 10 12 11 11 12 16 14 16 17 19
12 nan nan 6 nan 13 15 10 6 9 7 2 8 12 nan nan nan 7 8 12 10 6 3 0 1 2 6 7 6 7 12 16 16 15 12 11 14 14 13 13 13 12 16 16 16 16 16 17 17
7 10 nan nan nan nan 10 5 4 7 7 12 18 nan nan nan nan 10 14 13 9 7 5 3 0 3 6 8 12 18 21 20 19 15 14 13 11 15 15 16 10 12 15 19 16 16 15 14 16
6 7 7 nan nan nan nan 8 4 16 11 23 27 nan nan nan nan 11 11 13 10 8 4 4 1 5 8 12 16 21 22 20 17 13 nan 13 10 10 11 8 8 14 15 15 13 15 16 12 13
16 9 4 nan nan nan nan nan 14 19 16 20 25 nan nan nan 12 12 12 12 12 11 7 4 2 6 11 15 16 19 20 16 17 15 nan 8 7 9 9 10 8 9 14 13 13 13 14 12 11
10 12 3 10 nan nan nan nan 21 13 20 24 20 21 nan nan 11 9 12 10 13 10 7 5 3 6 12 15 15 17 13 14 11 13 nan 8 7 10 7 8 9 6 10 11 12 12 12 8 nan
nan nan nan 9 nan nan nan nan 12 11 22 24 31 26 21 17 14 8 10 12 14 10 8 5 4 7 10 15 nan 14 15 14 12 11 11 12 9 9 9 10 13 12 11 9 13 12 11 7 6
nan nan nan nan nan nan nan nan 4 13 20 27 27 27 22 20 14 10 9 9 15 7 nan nan 3 7 9 11 nan 16 19 18 12 11 10 13 13 11 11 12 15 13 13 15 16 8 0 2 3
nan nan nan nan nan 11 nan nan 10 14 23 25 20 21 20 21 18 10 6 7 10 6 nan nan 3 6 8 9 13 13 14 15 11 8 8 11 10 6 6 11 12 13 10 10 11 7 6 nan 6
nan nan nan nan nan 23 nan nan 18 13 19 22 21 20 19 18 18 13 11 2 2 nan nan nan nan 5 7 11 10 11 10 11 9 8 8 7 6 7 8 12 10 10 9 11 10 9 10 10 10
nan nan nan nan nan nan nan nan 16 17 15 22 21 23 21 20 20 11 6 3 5 6 3 nan nan 5 5 11 12 11 12 10 10 9 9 8 7 8 9 10 12 12 12 11 11 10 11 13 14
nan nan nan nan nan nan nan nan nan 24 17 21 25 22 20 25 23 18 10 3 6 6 nan nan nan 6 9 12 13 12 9 12 9 7 8 9 8 7 9 10 11 11 13 13 12 nan nan nan nan
nan nan nan nan nan nan nan nan nan 28 25 28 28 34 19 19 20 19 16 8 6 7 4 2 nan nan 8 9 10 12 nan nan nan 5 9 8 8 8 10 11 13 14 11 13 13 11 11 nan nan
nan nan nan nan nan nan nan nan nan 11 22 16 20 20 33 26 31 19 19 11 4 5 2 5 nan nan 4 6 12 13 13 12 9 7 6 7 7 8 9 11 11 11 9 12 12 12 10 nan nan
nan nan nan nan nan nan nan nan nan nan 21 16 16 26 24 34 33 23 18 16 9 2 2 8 4 3 nan 5 5 5 8 5 6 4 4 5 4 4 6 8 8 8 7 10 12 11 11 nan nan
nan nan nan nan nan nan nan nan nan nan 28 10 15 23 nan 27 31 19 17 16 10 2 2 6 6 4 6 4 5 6 5 4 6 7 4 4 4 3 4 4 7 8 8 10 11 10 10 nan nan
nan nan nan nan nan nan nan nan nan nan 25 17 17 16 18 26 27 21 16 8 6 4 2 5 6 5 4 4 5 5 2 5 4 5 4 5 4 1 3 6 7 9 9 10 10 11 10 10 nan
nan nan nan nan nan nan nan nan nan nan 9 19 28 18 19 24 17 28 20 15 10 9 7 2 6 4 5 5 5 4 4 4 2 3 3 4 5 3 2 7 8 9 11 12 10 9 8 8 8
nan nan nan nan nan nan nan nan nan nan nan 23 25 21 24 19 13 21 23 12 10 9 8 6 5 3 5 4 4 5 6 5 3 2 5 4 4 3 5 6 8 10 11 10 9 7 7 7 6
nan nan nan nan nan nan nan nan nan nan nan nan 13 17 18 9 15 20 21 13 7 8 6 7 6 2 2 2 5 4 3 1 2 5 6 7 7 4 7 9 8 9 11 11 12 11 9 10 9
nan nan nan nan nan nan nan nan nan nan nan nan 19 15 13 4 10 12 20 16 4 6 5 4 6 4 2 3 3 3 3 5 4 5 5 7 10 8 9 10 11 10 10 12 12 12 12 13 10
nan nan nan nan nan nan nan nan nan nan nan nan nan 25 22 18 9 9 14 18 8 3 5 2 5 4 2 1 2 2 4 4 7 6 6 7 10 12 13 11 12 12 13 12 14 13 14 15 13
nan nan nan nan nan nan nan nan nan nan nan nan nan 28 25 22 12 5 8 16 9 1 2 3 4 4 2 4 4 4 5 3 4 6 7 6 8 10 16 17 16 15 14 13 14 14 14 16 14
Wind_Direction
nan nan nan nan nan nan nan nan 165 108 nan 41 nan nan nan nan nan nan nan nan nan 29 12 324 311 305 292 288 283 262 257 248 247 243 231 221 227 225 195 209 280 295 318 319 328 329 306 272 261
nan nan 145 164 143 nan nan 54 58 69 56 330 253 280 nan nan nan nan nan nan nan 351 335 319 318 310 304 302 309 265 258 254 241 237 219 226 229 211 224 246 257 276 296 300 305 309 288 280 278
nan nan 169 265 nan nan 104 79 62 48 352 2 29 nan nan nan nan nan nan nan 339 323 313 321 314 320 324 311 298 268 261 244 233 227 207 218 224 219 227 240 257 277 297 319 342 342 345 318 306
nan 140 54 nan nan 102 124 124 4 349 8 20 310 nan nan nan nan nan nan nan 317 315 330 315 321 328 330 319 300 274 266 249 244 203 188 201 205 219 230 244 12 33 47 37 34 27 22 0 327
148 166 nan nan nan nan 136 128 15 328 199 313 326 nan nan nan nan nan nan 297 303 316 320 329 325 331 325 308 304 312 312 301 286 147 154 174 169 144 126 115 101 75 61 56 38 29 27 30 39
166 nan nan nan nan 130 146 141 78 295 279 305 nan nan nan nan nan nan nan 310 302 305 305 314 325 324 311 327 348 0 2 69 102 112 129 132 133 128 111 104 88 89 82 64 51 44 52 56 90
nan nan nan nan nan nan 110 73 47 349 332 332 nan nan nan nan nan nan 308 306 303 305 298 287 341 315 333 346 8 15 105 114 108 112 113 110 110 109 112 102 91 89 75 69 65 57 66 77 86
219 nan nan nan nan 176 130 52 25 344 350 312 nan nan nan nan nan 322 307 308 301 304 303 204 167 207 125 118 18 66 121 103 94 101 104 100 97 91 93 101 109 92 74 66 78 74 71 76 92
224 nan nan 31 nan 114 121 57 73 255 343 24 35 319 nan nan nan 346 331 313 313 313 314 253 237 163 131 123 107 116 104 100 98 98 97 107 106 102 73 73 78 88 89 92 86 83 85 83 85
207 234 nan nan nan nan 172 84 255 295 338 287 286 nan nan nan nan 8 329 318 325 334 347 1 336 130 124 112 135 123 118 119 109 102 96 95 99 100 83 82 59 91 101 104 93 99 86 75 91
221 210 268 nan nan nan nan 358 17 343 356 337 327 nan nan nan nan 5 341 337 334 346 2 4 88 120 112 126 135 127 126 114 108 95 nan 98 114 104 93 95 80 94 97 94 99 102 93 85 76
173 131 87 nan nan nan nan nan 36 35 27 345 333 nan nan nan 13 5 3 349 347 344 358 27 92 113 119 137 131 125 123 110 110 85 nan 84 93 65 62 67 63 89 89 79 86 77 81 75 65
154 155 125 155 nan nan nan nan 76 9 346 337 327 339 nan nan 358 10 6 352 350 348 6 42 89 112 123 132 135 129 106 112 98 83 nan 103 81 81 72 75 81 53 74 72 76 66 67 80 nan
nan nan nan 182 nan nan nan nan 137 350 332 351 347 350 356 357 352 349 6 359 353 350 7 45 80 106 121 133 nan 118 113 103 101 96 87 96 75 67 72 70 72 75 80 86 80 55 52 40 38
nan nan nan nan nan nan nan nan 356 357 342 353 2 355 355 358 1 354 356 4 358 344 nan nan 85 110 117 142 nan 127 119 98 86 77 73 81 81 67 44 71 71 60 61 61 79 70 125 10 63
nan nan nan nan nan 201 nan nan 340 349 341 347 3 3 6 2 1 9 342 341 354 306 nan nan 109 108 128 150 136 138 126 115 107 88 73 67 73 64 82 62 56 54 50 52 49 64 61 nan 59
nan nan nan nan nan 257 nan nan 321 346 343 343 10 7 10 10 19 10 1 310 292 nan nan nan nan 117 135 149 159 144 135 127 121 122 109 77 64 45 52 39 54 52 60 58 59 67 78 71 57
nan nan nan nan nan nan nan nan 303 352 338 349 353 5 4 10 27 33 18 354 195 250 332 nan nan 141 159 172 169 166 147 137 134 121 111 85 79 34 28 50 40 48 54 78 58 64 62 49 50
nan nan nan nan nan nan nan nan nan 337 340 354 0 4 350 358 11 42 54 56 158 226 nan nan nan 166 177 185 183 166 150 143 142 132 82 73 71 59 38 52 48 45 55 67 60 nan nan nan nan
nan nan nan nan nan nan nan nan nan 325 349 352 347 351 12 3 4 32 37 48 131 192 247 208 nan nan 176 190 186 172 nan nan nan 155 101 64 55 40 36 33 42 50 40 50 58 48 51 nan nan
nan nan nan nan nan nan nan nan nan 288 296 322 7 24 4 354 359 19 44 32 96 169 257 255 nan nan 187 188 196 183 184 187 175 149 117 90 64 37 35 30 32 33 37 40 45 44 28 nan nan
nan nan nan nan nan nan nan nan nan nan 277 309 0 23 24 2 352 359 43 57 67 100 205 261 232 230 nan 230 209 204 186 177 155 161 153 109 83 58 49 24 21 35 29 29 38 34 31 nan nan
nan nan nan nan nan nan nan nan nan nan 271 0 13 29 nan 1 351 344 20 42 47 340 279 256 258 247 251 254 244 224 207 174 195 199 156 153 132 54 23 24 5 31 39 32 21 28 11 nan nan
nan nan nan nan nan nan nan nan nan nan 307 352 47 45 38 18 358 356 12 355 1 340 314 277 269 271 258 251 236 274 281 209 219 214 173 185 204 155 344 7 6 14 23 25 14 21 12 12 nan
nan nan nan nan nan nan nan nan nan nan 318 347 27 26 14 12 24 7 10 355 320 328 341 347 314 286 257 268 250 276 277 267 252 231 189 225 238 241 355 346 7 12 16 14 4 355 352 2 344
nan nan nan nan nan nan nan nan nan nan nan 1 5 14 346 350 353 26 1 1 335 327 332 0 7 331 259 251 264 256 263 249 208 196 234 237 247 277 321 360 2 1 0 0 346 324 321 324 338
nan nan nan nan nan nan nan nan nan nan nan nan 265 264 274 350 20 43 3 360 1 306 334 354 358 0 236 222 213 229 250 71 152 200 233 244 260 271 319 335 334 338 334 335 327 327 327 308 312
nan nan nan nan nan nan nan nan nan nan nan nan 285 301 329 303 332 16 14 344 35 309 298 332 341 24 236 207 173 198 220 206 188 217 248 265 269 281 280 292 310 312 321 323 318 314 312 313 301
nan nan nan nan nan nan nan nan nan nan nan nan nan 298 319 330 345 24 17 351 17 294 281 325 306 320 296 309 230 212 197 207 231 250 278 290 275 274 273 284 286 298 306 316 312 313 311 320 320
nan nan nan nan nan nan nan nan nan nan nan nan nan 275 294 314 336 23 345 334 334 321 262 308 288 279 241 235 222 215 217 253 281 309 301 302 288 270 272 276 278 294 308 312 313 318 317 315 326